SCP
0 0 0 0 0 0 0 0 0 0 0 0 0 0 0 0 0 0 0 0 0 0 0 0 0 0 0 0 0 0 0 0 0 0 0 0 0 0
0 0 0 0 0 0 0 0 0 0 0 0 0 0 0 0 0 0 0 0 0 0 0 0 0 0 0 0 0 0 0 0 0 0 0 0 0 0
0 0 0 0 0 0 0 0 0 0 0 0 0 0 0 0 0 0 0 0 0 0 0 0 0 0 0 0 0 0 0 0 0 0 0 0 0 0
0 0 0 0 0 0 0 0 0 0 0 0 0 0 0 0 0 0 0 0 0 0 0 0 0 0 0 0 0 0 0 0 0 0 0 0 0 0
0 0 0 0 0 0 0 0 0 0 0 0 0 0 0 0 0 0 0 0 0 0 0 0 0 0 0 0 0 0 0 0 0 0 0 0 0 0
0 0 0 0 0 0 0 0 0 0 0 0 0 0 0 0 0 0 0 0 0 0 0 0 0 0 0 0 0 0 0 0 0 0 0 0 0 0
0 0 0 0 0 0 0 0 0 0 0 0 0 0 0 0 0 0 0 0 0 0 0 0 0 0 0 0 0 0 0 0 0 0 0 0 0 0
0 0 0 0 0 0 0 0 0 0 0 0 0 0 0 0 0 0 0 0 0 0 0 0 0 0 0 0 0 0 0 0 0 0 0 0 0 0
0 0 0 0 0 0 0 0 0 0 0 0 0 0 0 0 0 0 0 0 0 0 0 0 0 0 0 0 0 0 0 0 0 0 0 0 0 0
0 0 0 0 0 0 0 0 0 0 0 0 0 0 0 0 0 0 0 0 0 0 0 0 0 0 0 0 0 0 0 0 0 0 0 0 0 0
0 0 0 0 0 0 0 0 0 0 0 0 0 0 0 0 0 0 0 0 0 0 0 0 0 0 0 0 0 0 0 0 0 0 0 0 0 0
0 0 0 0 0 0 0 0 0 0 0 0 0 0 0 0 0 0 0 0 0 0 0 0 0 0 0 0 0 0 0 0 0 0 0 0 0 0
0 0 0 0 0 0 0 0 0 0 0 0 0 0 0 0 0 0 0 0 0 0 0 0 0 0 0 0 0 0 0 0 0 0 0 0 0 0
0 0 0 0 0 0 0 0 0 0 0 0 0 0 0 0 0 0 0 0 0 0 0 0 0 0 0 0 0 0 0 0 0 0 0 0 0 0
0 0 0 0 0 0 0 0 0 0 0 0 0 0 0 0 0 0 0 0 0 0 0 0 0 0 0 0 0 0 0 0 0 0 0 0 0 0
0 0 0 0 0 0 0 0 0 0 0 0 0 0 0 0 0 0 0 0 0 0 0 0 0 0 0 0 0 0 0 0 0 0 0 0 0 0
0 0 0 0 0 0 0 0 0 0 0 0 0 0 0 0 0 0 0 0 0 0 0 0 0 0 0 0 0 0 0 0 0 0 0 0 0 0
0 0 0 0 0 0 0 0 0 0 0 0 0 0 0 0 0 0 0 0 0 0 0 0 0 0 0 0 0 0 0 0 0 0 0 0 0 0
0 0 0 0 0 0 0 0 0 0 0 0 0 0 0 0 0 0 0 0 0 0 0 0 0 0 0 0 0 0 0 0 0 0 0 0 0 0
0 0 0 0 0 0 0 0 0 0 0 0 0 0 0 0 0 0 0 0 0 0 0 0 0 0 0 0 0 0 0 0 0 0 0 0 0 0
0 0 0 0 0 0 0 0 0 0 0 0 0 0 0 0 0 0 0 0 0 0 0 0 0 0 0 0 0 0 0 0 0 0 0 0 0 0
0 0 0 0 0 0 0 0 0 0 0 0 0 0 0 0 0 0 0 0 0 0 0 0 0 0 0 0 0 0 0 0 0 0 0 0 0 0
0 0 0 0 0 0 0 0 0 0 0 0 0 0 0 0 0 0 0 0 0 0 0 0 0 0 0 0 0 0 0 0 0 0 0 0 0 0
Wind_Speed
2 1 1 1 1 1 2 3 3 2 2 2 1 2 2 1 3 3 3 7 9 9 9 9 9 9 9 8 8 8 7 7 6 6 6 6 6 6
2 2 1 1 1 1 1 2 2 3 2 2 2 2 2 2 3 3 3 6 9 9 10 10 10 10 9 9 9 8 8 8 8 7 7 7 7 7
1 2 2 2 1 1 1 1 2 2 2 2 2 1 1 1 1 2 2 3 4 8 10 10 10 10 10 9 9 9 9 9 8 8 8 8 8 8
3 2 2 2 1 1 1 1 1 2 2 2 2 1 2 2 2 2 2 2 2 5 7 9 9 10 10 10 10 10 9 9 9 9 9 9 8 8
4 3 3 2 2 1 1 1 1 1 1 2 2 1 1 1 0 2 2 1 2 3 4 6 8 9 9 10 10 10 10 10 10 10 10 10 9 9
3 4 3 4 4 3 2 2 2 1 1 1 1 1 1 1 0 1 1 1 2 2 2 3 5 7 9 9 10 10 10 11 11 11 11 10 10 10
3 3 3 4 5 4 2 2 2 2 1 1 1 1 1 1 1 1 2 2 2 1 1 2 2 3 4 7 9 10 10 11 11 11 11 11 11 11
3 3 3 3 4 4 4 4 5 4 3 3 2 2 3 3 2 2 1 0 2 2 1 3 1 3 3 4 7 10 10 11 11 11 11 11 11 11
4 3 3 3 3 3 3 3 4 5 6 5 4 4 4 4 3 2 2 2 3 2 1 3 2 3 3 4 7 9 10 10 11 11 11 11 11 11
4 4 4 4 4 3 3 3 3 4 5 5 5 5 5 4 5 4 4 2 2 2 2 2 2 3 3 3 6 8 9 10 10 10 10 10 10 10
4 4 4 4 5 5 3 3 3 4 4 5 6 6 6 6 4 2 1 1 2 2 1 2 2 2 2 3 4 6 7 8 9 9 9 9 9 8
3 3 5 5 5 5 4 4 4 4 2 2 2 3 3 3 5 4 4 3 2 2 2 2 1 0 2 2 2 2 3 6 8 9 9 9 8 5
3 3 3 5 5 6 5 5 6 4 2 2 2 2 2 2 2 3 4 4 4 3 3 2 1 1 1 2 2 2 2 2 2 4 7 9 8 7
4 3 3 5 6 6 6 6 6 4 2 1 1 2 2 3 3 3 4 4 4 5 4 3 2 3 2 2 3 2 2 2 2 3 3 5 7 10
3 5 5 6 5 4 6 6 4 3 2 2 2 3 3 3 2 2 2 2 2 3 3 3 3 3 3 3 3 2 2 2 2 3 3 3 4 4
2 3 4 4 3 3 3 3 3 3 3 3 3 2 2 1 2 1 1 1 1 3 3 4 4 4 3 3 3 3 3 3 2 2 2 3 3 4
2 1 1 1 1 2 2 2 3 2 3 2 2 2 2 2 2 1 1 1 2 2 3 2 2 3 4 3 3 4 3 3 3 3 2 3 4 5
3 2 2 3 3 3 3 3 3 3 3 3 3 3 3 3 3 2 1 2 2 3 3 2 1 0 1 2 4 4 3 3 3 3 2 3 5 4
3 2 3 3 3 3 3 3 3 3 3 3 3 3 3 3 2 2 2 2 2 3 3 2 2 2 2 4 4 4 4 3 2 2 3 3 5 5
2 3 3 3 3 3 3 3 3 2 2 3 3 3 3 3 2 3 3 3 3 3 3 2 2 3 5 4 3 4 5 4 3 3 3 3 4 5
2 3 3 3 3 3 3 3 3 3 3 3 3 3 3 3 3 3 3 4 3 2 3 4 5 5 2 1 1 3 3 4 5 4 3 3 3 3
2 2 2 2 2 2 2 2 2 2 2 2 2 2 2 2 3 3 3 2 2 3 3 3 3 1 1 2 3 4 4 3 4 6 6 6 4 4
2 2 1 1 1 1 1 1 2 2 1 1 1 2 2 2 2 2 2 2 2 2 2 2 2 1 2 3 3 3 5 4 3 2 4 6 8 9
Wind_Direction
195 179 178 191 170 161 154 155 160 189 248 264 273 263 243 220 220 208 219 220 219 218 218 216 216 216 217 214 211 211 210 209 211 214 214 216 215 218
183 165 189 200 188 159 164 166 167 170 213 242 241 252 233 225 221 221 236 237 229 225 225 222 219 217 219 218 216 214 212 212 214 215 215 218 221 224
186 173 198 189 166 202 181 176 178 159 189 256 256 270 235 237 261 256 256 245 245 237 233 229 225 222 221 220 220 218 216 216 216 217 218 222 226 229
200 183 210 195 175 195 182 198 202 184 175 223 264 268 251 238 239 245 254 244 248 248 237 232 228 224 223 224 222 220 219 220 219 222 224 226 229 231
201 194 206 188 196 206 195 201 212 183 162 181 244 258 264 262 264 280 274 271 258 251 236 235 232 229 227 227 223 219 221 222 222 224 226 227 228 230
207 201 200 192 200 200 198 206 189 161 152 168 238 270 266 272 150 273 299 294 272 258 241 239 240 236 232 228 227 224 223 225 226 226 227 228 228 230
219 215 210 199 199 196 194 200 184 182 174 181 228 248 259 256 239 227 242 275 273 247 249 256 243 245 238 234 233 231 228 227 228 228 228 227 228 229
219 232 231 214 210 210 210 194 181 182 192 192 211 227 241 232 228 214 209 271 283 262 208 264 229 247 250 234 231 227 228 228 229 229 229 228 228 230
218 223 233 230 221 224 231 231 219 211 197 189 202 220 222 220 205 213 211 208 236 249 191 261 247 250 254 252 238 229 228 230 229 229 229 229 228 229
222 219 218 229 231 216 221 232 239 235 223 209 208 221 225 221 207 206 212 227 264 261 174 234 255 250 259 251 245 236 231 229 229 231 231 230 230 232
233 228 220 226 237 219 202 221 245 261 253 233 227 231 234 232 206 160 161 163 259 270 205 207 246 263 267 256 251 235 235 233 232 231 231 231 231 231
244 241 234 233 236 209 196 202 231 248 251 265 265 266 247 230 209 192 187 186 200 251 237 199 240 225 293 282 271 257 244 246 242 237 235 234 227 215
225 239 244 238 229 215 205 208 225 228 223 221 234 258 267 251 232 217 201 189 189 224 224 179 204 196 214 284 297 265 236 238 237 243 238 237 225 205
222 231 241 240 233 227 219 231 235 217 201 215 232 243 246 248 244 233 225 215 211 218 219 179 189 195 196 246 275 286 271 246 227 238 235 230 227 223
227 234 237 239 239 236 235 237 224 198 186 202 235 242 239 241 244 252 261 243 244 248 230 205 198 205 193 215 243 253 272 268 233 232 235 220 216 212
239 250 244 243 236 236 240 235 217 207 198 207 225 242 249 251 247 234 235 244 249 275 265 234 216 200 211 230 229 248 242 249 256 242 246 245 225 213
188 197 221 220 227 238 239 231 221 217 219 219 211 231 241 235 249 240 220 216 221 247 274 281 250 222 217 214 232 244 248 253 252 246 239 259 250 228
164 201 221 219 220 222 224 230 221 216 217 212 212 220 226 229 242 242 216 212 238 246 247 246 231 317 325 278 228 233 242 247 255 246 225 243 265 252
177 214 224 224 223 220 221 220 222 224 217 209 210 218 224 229 230 234 231 230 244 251 249 230 203 190 235 274 278 229 224 247 251 253 241 234 250 262
210 219 225 230 227 223 224 223 222 221 218 218 216 220 222 223 229 232 232 233 240 247 261 255 224 210 214 229 249 267 236 225 230 245 253 252 258 269
236 240 235 229 229 227 225 223 219 219 223 221 221 223 224 221 229 233 234 240 236 239 254 257 247 238 219 161 265 280 271 236 224 226 230 243 268 277
243 243 249 244 229 229 228 222 219 219 222 222 226 226 225 219 226 237 233 232 239 242 249 264 274 259 177 203 244 265 275 278 260 254 244 223 215 227
236 240 251 254 251 243 221 205 199 210 217 224 228 226 214 213 222 226 231 234 248 257 263 283 298 259 234 228 242 260 269 274 275 287 279 260 243 245